Location: Dobrzeń Wielki
(50.7693°N, 17.8414°E)
Time: 10:27:12
(UTC+01:00)

Envisat - Visible Passes

Search period start: 21 March 2019 00:00
Search period end: 31 March 2019 00:00
Orbit: 764 x 766 km, 98.2° (Epoch: 21 March)

Date Brightness Start Highest point End Pass type
(mag) Time Alt. Az. Time Alt. Az. Time Alt. Az.
21 Mar 3.8 18:38:03 10° S 18:43:03 57° W 18:48:04 10° NNW visible
22 Mar 5.8 19:42:24 10° SW 19:45:51 18° W 19:49:19 10° NW visible
23 Mar 4.8 19:04:06 10° SSW 19:08:43 35° W 19:13:23 10° NNW visible
24 Mar 6.2 20:10:33 10° W 20:11:47 11° W 20:13:01 10° WNW visible
25 Mar 5.6 19:30:35 10° SW 19:34:30 22° W 19:38:26 10° NW visible
26 Mar 4.4 18:52:37 10° S 18:57:26 43° W 19:02:17 10° NNW visible
27 Mar 6.0 19:57:54 10° WSW 20:00:24 14° W 20:02:54 10° NW visible
28 Mar 5.3 19:18:54 10° SSW 19:23:10 27° W 19:27:28 10° NW visible
29 Mar 4.0 18:41:13 10° S 18:46:09 52° W 18:51:09 10° NNW visible
30 Mar 5.8 19:45:47 10° SW 19:49:00 17° W 19:52:15 10° NW visible
